Home > Weather > Red Deer > Past weeks

Flag for Canada Weather for the Past 2 Weeks in Red Deer, Alberta, Canada

Now
19 °F

Passing clouds.


Feels Like: 19 °F
Forecast: 19 / 33 °F
Wind: No wind

Location: Red Deer

Current Time: Feb 10, 2016 at 6:19:52 AM

Latest Report: Feb 10, 2016 at 6:00 AM


Visibility: 15 mi

Pressure: 30.21 "Hg (27.06 "Hg at 857m altitude)

Humidity: 86%

Dew point: 16 °F

Location of Red DeerLocation

Historic Weather in Red Deer — Graph

°F

Red Deer Temperature Yesterday

Maximum temperature yesterday: 41 °F (at 5:00 PM)
Minimum temperature yesterday: 21 °F (at 9:00 PM)
Average temperature yesterday: 29 °F

High & Low Weather Summary for the Past Weeks

 TemperatureHumidityPressure
High48 °F (Jan 28, 3:00 PM)100% (Jan 31, 6:00 AM)30.56 "Hg (Jan 31, 6:00 AM)
Low-4 °F (Feb 3, 4:00 AM)33% (Feb 6, 4:00 PM)29.38 "Hg (Jan 28, 3:00 PM)
Average24 °F74%30.02 "Hg
* Reported Jan 26 5:00 AM — Feb 10 5:00 AM, Red Deer, Weather by CustomWeather, © 2016

Note: Actual official high and low records may vary slightly from our data, if they occured in-between our weather recording intervals... More about our weather records

Advertising

Red Deer Weather History for the Previous 24 Hours

 ConditionsComfort  
Time TempWeatherWind HumidityBarometerVisibility
5:00 AM
Wed, Feb 10
16 °FClear.2 mph86%30.19 "Hg15 mi
4:00 AM16 °FClear.5 mph79%30.19 "Hg15 mi
3:00 AM18 °FClear.5 mph73%30.17 "Hg15 mi
2:00 AM21 °FClear.6 mph74%30.14 "Hg15 mi
1:00 AM21 °FClear.5 mph86%30.15 "Hg15 mi
12:00 AM19 °FClear.No wind79%30.14 "Hg15 mi
11:00 PM
Tue, Feb 9
21 °FClear.3 mph86%30.12 "Hg15 mi
10:00 PM23 °FClear.5 mph80%30.11 "Hg15 mi
9:00 PM21 °FPassing clouds.3 mph80%30.12 "Hg15 mi
8:00 PM27 °FPassing clouds.5 mph74%30.11 "Hg15 mi
7:00 PM28 °FPassing clouds.3 mph74%30.11 "Hg15 mi
6:00 PM36 °FPassing clouds.3 mph60%30.11 "Hg15 mi
5:00 PM41 °FPartly sunny.No wind49%30.11 "Hg15 mi
4:00 PM39 °FScattered clouds.No wind52%30.11 "Hg15 mi
3:00 PM39 °FScattered clouds.2 mph56%30.13 "Hg15 mi
2:00 PM37 °FScattered clouds.No wind56%30.16 "Hg15 mi
1:00 PM36 °FPartly sunny.No wind65%30.20 "Hg15 mi
12:00 PM34 °FPartly sunny.3 mph70%30.24 "Hg15 mi
11:00 AM32 °FPartly sunny.7 mph69%30.27 "Hg15 mi
10:00 AM25 °FPartly sunny.6 mph80%30.30 "Hg15 mi
9:00 AM23 °FPartly sunny.6 mph86%30.32 "Hg15 mi
8:00 AM23 °FPassing clouds.5 mph80%30.33 "Hg15 mi
7:00 AM25 °FPassing clouds.No wind80%30.33 "Hg15 mi
6:00 AM23 °FPassing clouds.8 mph80%30.33 "Hg15 mi
Weather by CustomWeather, © 2016

See weather overviewHow to use our weather pages